Theta_e
285 285 284 284 284 284 284 284 284 283 283 283 283 282 281 281 280 280 280 279 279 279 279 279 279 279 278 278 278 278 277 277 275 277 279 280 280 280 281 281 282 281 283
285 285 284 284 284 283 283 283 283 282 282 282 282 281 281 281 280 280 279 280 279 279 279 279 278 281 278 278 278 277 277 278 276 276 277 278 278 279 280 281 282 283 282
285 284 284 283 283 283 283 283 282 282 281 281 281 281 280 280 280 280 280 279 279 279 279 279 278 279 278 278 278 277 278 280 278 277 276 278 279 279 279 280 281 281 282
284 284 283 283 283 283 283 283 282 281 280 279 278 278 279 279 280 280 280 279 279 279 280 279 279 279 278 278 278 277 278 277 278 277 277 277 277 278 278 276 276 278 278
284 283 283 283 283 283 282 282 281 281 280 279 278 277 277 278 279 277 279 278 278 279 280 280 279 279 280 279 277 276 276 276 275 275 274 275 274 275 274 275 273 273 273
283 282 282 282 282 282 281 281 281 280 280 280 278 276 276 280 284 284 281 279 280 280 279 277 278 277 277 278 278 279 278 275 275 275 274 273 272 274 273 272 270 269 267
282 282 282 282 281 281 281 281 280 279 279 278 277 277 276 277 284 284 283 281 280 276 274 275 276 276 275 275 276 277 277 277 278 275 273 274 272 273 273 270 269 268 266
281 281 281 281 280 280 280 279 278 277 275 275 276 275 275 278 282 281 279 274 273 271 272 272 272 271 272 274 273 273 273 274 276 275 274 273 273 275 273 270 267 266 266
280 280 280 280 279 278 277 275 274 273 273 274 274 273 274 277 280 279 276 273 272 271 271 271 271 271 273 276 273 270 271 271 274 275 276 276 275 275 273 267 263 262 260
276 277 277 277 276 274 274 273 272 271 270 270 270 270 270 272 278 277 275 273 271 270 270 271 274 272 275 275 273 271 268 266 268 266 264 265 267 266 269 266 264 260 260
272 273 273 273 273 272 272 271 270 269 268 267 267 267 268 269 273 275 275 272 271 270 270 268 269 273 274 276 276 271 269 272 265 258 259 261 262 262 262 261 261 261 259
270 270 270 271 271 271 269 269 269 268 266 266 266 266 267 267 272 273 273 273 273 270 268 269 268 273 275 274 273 273 273 269 259 257 257 258 258 259 259 261 260 260 261
268 268 268 269 269 270 268 268 268 268 267 266 266 265 266 267 268 271 272 272 272 270 269 271 273 273 272 270 270 271 265 257 253 251 252 257 256 259 258 259 259 259 259
266 266 267 267 267 268 269 268 268 267 266 266 266 265 266 266 267 268 269 269 270 269 270 268 269 269 268 267 262 263 261 257 254 252 254 257 257 256 256 257 257 257 256
265 266 266 266 266 266 267 267 267 268 268 266 265 265 264 264 266 269 269 268 268 269 268 263 261 261 259 259 258 257 257 256 256 256 256 255 255 255 255 256 256 256 254
264 264 264 264 265 265 266 267 272 271 271 270 270 267 266 267 268 268 269 269 270 269 259 256 256 256 256 256 255 255 255 254 255 256 255 254 254 254 255 255 255 254 253
262 262 262 262 262 262 262 261 261 265 268 267 267 266 266 265 266 267 267 267 265 261 253 253 253 254 254 254 254 254 254 255 255 254 254 254 254 254 253 253 253 253 253
260 261 260 260 259 259 259 258 259 258 257 257 261 263 263 263 264 265 265 259 252 253 249 247 246 247 251 252 252 253 253 253 253 253 253 253 253 253 253 252 253 252 252
258 258 258 258 258 258 258 257 257 256 255 255 255 257 257 260 262 260 260 249 245 244 244 245 247 247 249 250 251 251 251 252 252 252 252 252 253 252 252 252 253 253 253
257 258 257 257 256 256 256 255 255 254 254 253 253 252 252 253 249 247 248 245 243 244 244 243 245 246 244 246 249 250 250 250 251 251 251 251 252 252 251 252 252 252 252
256 256 256 255 255 254 254 253 253 252 251 249 249 252 260 247 243 244 243 243 242 242 243 243 244 243 243 245 248 249 249 249 249 250 250 251 251 251 252 252 253 253 253
255 255 254 254 254 253 252 252 252 250 249 248 248 248 257 244 243 242 243 243 242 242 242 242 245 244 246 247 248 248 248 248 249 249 250 251 251 252 252 252 252 253 253
255 254 253 252 251 252 251 251 250 249 248 246 245 245 243 242 241 241 241 241 241 243 244 241 242 247 248 246 245 247 247 248 248 250 250 250 250 251 251 251 252 252 252
253 253 252 251 250 249 248 246 247 248 246 244 242 242 242 241 240 241 242 242 241 242 242 243 243 246 246 247 248 248 248 248 249 249 250 250 249 250 251 251 252 253 254
252 251 251 250 248 246 245 244 245 242 241 241 241 241 240 241 240 241 241 242 242 243 244 244 245 246 245 245 246 246 247 249 248 250 250 250 250 250 251 252 254 256 257
251 250 249 248 246 244 243 242 240 240 239 240 240 239 240 241 242 241 242 242 243 243 244 245 246 244 245 246 246 248 249 253 252 253 253 254 254 255 256 256 256 256 257
Wind_Speed
15 13 12 10 10 8 9 8 8 8 10 8 8 7 7 7 6 6 6 5 5 4 3 4 3 3 1 1 1 1 1 2 3 4 3 4 5 7 7 5 6 6 7
15 14 13 11 10 8 10 8 8 9 8 8 8 7 7 7 7 6 6 6 5 5 4 4 2 1 2 1 1 2 2 3 2 8 3 3 4 5 7 11 10 9 9
15 14 13 12 12 10 10 9 8 9 8 8 8 8 7 7 7 6 6 5 4 4 3 3 1 2 1 1 2 3 3 3 3 4 6 4 6 7 8 9 9 8 7
15 15 15 14 13 11 10 10 9 9 9 7 7 6 6 6 7 6 6 5 4 4 4 4 4 4 3 4 3 4 3 3 5 6 7 7 6 6 6 9 10 8 10
15 15 14 13 13 11 10 10 9 9 8 8 8 7 6 6 4 5 5 5 5 4 4 5 5 4 5 3 1 2 3 3 4 6 7 7 7 6 9 8 8 9 8
15 14 13 13 12 12 11 12 11 9 9 9 8 8 7 4 10 10 7 5 4 3 3 5 4 6 6 6 7 9 8 4 6 6 7 8 9 7 7 7 10 11 14
13 12 13 13 13 12 12 12 12 11 11 10 9 8 7 5 11 9 9 4 5 6 5 4 4 4 4 3 7 10 9 13 13 9 7 5 6 9 8 10 11 12 15
13 13 13 13 13 13 13 12 12 12 11 10 10 9 8 6 14 12 13 7 6 5 5 5 4 3 3 3 3 4 5 6 6 6 6 8 10 10 11 11 14 15 13
9 10 11 14 14 14 14 14 12 13 11 11 10 9 10 9 14 12 9 5 5 4 4 4 3 1 6 11 6 5 4 3 6 16 20 20 21 24 22 13 10 11 13
9 10 11 13 14 15 14 14 12 13 12 10 12 10 10 8 14 13 8 4 4 2 2 1 4 3 10 14 9 2 6 5 7 4 4 8 11 11 20 9 9 10 11
12 14 14 13 15 15 15 12 13 13 13 12 12 9 10 8 9 12 12 4 2 3 3 2 2 12 15 17 16 6 9 15 7 2 3 6 7 6 5 3 5 6 10
14 15 14 13 11 12 16 13 13 13 13 11 11 9 6 6 10 11 10 8 7 2 1 1 4 15 18 18 16 21 24 14 4 4 5 7 6 7 7 7 7 9 9
16 16 15 15 13 12 14 13 11 11 10 9 8 7 6 5 5 11 10 10 10 5 3 11 19 18 18 12 16 19 12 4 3 3 4 8 5 7 8 9 10 11 12
18 16 14 15 14 12 10 9 9 9 8 8 7 7 5 5 3 2 4 4 7 7 11 5 8 12 13 13 6 7 3 2 2 3 4 6 6 7 9 8 10 11 12
16 15 14 12 14 13 12 10 10 9 9 8 7 6 5 4 4 9 9 6 6 10 7 4 4 5 5 5 4 4 4 4 6 5 5 6 8 9 9 8 9 11 12
16 11 10 10 11 11 11 12 23 21 21 19 16 9 5 8 10 12 14 16 17 19 7 4 5 6 6 7 6 6 5 5 5 6 7 7 9 9 10 10 10 10 12
15 14 11 11 9 9 9 8 9 12 18 17 15 12 11 10 12 13 13 16 16 12 3 3 5 6 6 6 6 7 8 7 8 7 8 9 9 10 11 11 11 11 12
15 17 10 9 9 8 8 7 6 5 5 5 10 10 12 12 12 12 15 12 5 6 2 2 2 2 4 6 7 8 8 8 8 8 9 9 9 10 11 11 11 12 13
11 10 9 9 8 9 7 7 6 6 5 4 3 6 7 12 12 14 14 2 2 3 3 3 2 4 4 5 6 6 8 8 9 9 9 9 9 9 11 11 12 17 17
12 15 11 8 7 7 6 6 5 5 4 3 3 1 3 2 3 3 2 2 2 2 3 3 3 3 3 3 6 6 7 8 8 8 9 9 9 9 11 12 12 13 13
8 8 12 8 7 6 5 5 4 4 3 2 1 3 8 3 2 2 2 3 2 3 3 3 3 3 3 3 5 6 7 8 8 9 9 9 10 11 11 11 13 13 14
7 7 7 7 6 6 5 4 3 2 2 2 2 3 11 2 2 2 3 3 4 3 3 3 4 3 4 5 6 7 8 9 9 9 10 10 11 11 11 12 13 13 14
7 7 7 6 5 5 4 3 3 3 2 2 2 2 2 2 2 3 4 4 3 4 4 3 4 7 6 4 4 6 9 10 9 9 11 12 12 12 12 14 14 14 14
7 6 6 5 3 3 3 3 2 1 0 1 2 3 3 3 3 4 4 4 4 4 4 4 4 8 9 9 8 8 8 9 9 11 14 12 13 14 13 14 14 17 16
5 5 5 4 3 3 2 1 1 1 1 2 3 3 3 3 3 4 4 4 4 4 6 6 6 9 11 12 13 15 15 19 15 15 11 14 16 19 16 15 17 16 19
5 4 3 3 2 1 1 0 1 2 2 3 3 3 3 4 4 4 4 4 5 6 8 8 9 11 14 13 14 16 18 19 17 18 13 12 14 14 14 17 22 16 19
Wind_Direction
172 171 168 168 162 157 160 157 157 141 145 148 153 148 148 143 138 126 133 135 130 123 106 117 119 116 85 44 90 183 231 210 236 279 266 304 311 310 300 285 283 286 285
172 169 171 164 161 156 159 157 149 145 144 150 149 146 148 146 144 140 145 145 148 143 156 131 151 137 137 265 256 256 252 274 243 282 266 289 290 304 302 300 296 294 293
171 168 166 166 166 165 160 155 146 143 146 146 147 151 151 149 145 144 147 151 146 135 130 130 103 72 49 343 358 356 344 340 327 310 302 295 286 282 287 284 286 290 290
170 170 169 168 168 164 156 152 144 143 141 140 139 137 136 135 137 140 140 133 120 112 102 89 69 59 53 37 16 344 316 304 298 294 294 308 307 303 303 306 300 300 306
170 171 171 163 161 154 149 144 137 134 131 125 118 109 107 114 123 125 122 112 116 113 110 107 78 70 26 6 3 328 336 321 308 299 296 301 302 313 312 327 323 317 304
171 171 164 159 154 153 148 143 137 132 127 122 118 117 111 108 145 146 131 127 122 120 91 59 65 69 38 10 352 329 311 288 291 299 306 312 303 311 341 325 314 313 308
164 161 158 155 152 148 142 138 136 131 123 118 118 116 112 113 130 132 141 86 88 80 76 65 59 57 41 4 333 327 325 309 305 305 308 319 331 315 313 311 309 305 296
159 156 153 149 142 137 133 128 115 113 112 114 110 107 105 105 107 108 95 83 85 80 80 74 67 41 339 320 292 297 285 284 298 325 321 309 298 310 311 316 310 300 292
144 142 141 138 132 128 119 117 114 109 104 102 98 94 97 99 104 95 91 87 90 101 103 103 101 348 323 327 323 287 297 311 320 307 306 318 317 315 316 312 308 308 302
97 101 104 111 113 111 113 109 106 103 104 100 89 76 70 85 94 93 85 80 70 57 65 56 331 274 313 320 305 327 323 284 287 331 350 328 321 307 313 308 306 303 303
84 86 87 92 100 104 104 105 108 106 101 95 90 76 69 55 79 76 80 60 61 50 24 349 6 318 309 304 317 346 306 306 13 330 305 317 312 301 301 290 289 305 299
89 88 89 92 97 101 104 103 104 107 104 103 100 89 70 44 74 58 54 43 26 77 319 294 271 297 314 321 322 320 310 348 357 348 320 308 309 309 302 299 291 281 273
96 94 96 97 97 99 104 106 103 102 105 106 103 100 91 74 52 46 27 17 1 358 330 308 322 324 322 339 314 318 347 353 332 342 292 301 291 297 305 308 301 289 283
103 101 99 96 95 91 90 89 93 95 98 97 96 93 91 79 56 6 17 7 342 332 311 341 339 341 334 329 348 333 327 324 294 270 289 302 306 316 307 305 304 309 303
103 103 100 94 93 91 84 85 87 81 90 93 83 83 80 65 14 4 350 335 324 313 352 33 6 354 340 334 337 335 330 330 320 306 308 312 307 303 302 310 304 305 299
102 95 94 96 96 94 95 93 85 87 84 82 81 82 60 43 9 350 340 329 333 349 35 7 356 345 339 337 330 322 315 316 312 319 312 301 304 308 308 309 303 298 298
98 100 95 88 85 89 88 92 97 75 76 68 59 56 47 21 358 343 333 24 7 13 19 352 351 344 330 322 319 323 322 324 323 311 307 307 307 307 309 300 300 300 297
88 86 87 88 88 87 85 85 86 90 82 53 28 49 28 8 354 1 7 18 7 8 7 350 314 293 322 324 322 320 318 316 313 310 308 304 300 297 300 299 300 299 298
87 84 84 84 84 88 88 84 81 79 76 67 40 38 9 3 16 11 19 51 14 338 327 326 322 326 313 312 313 313 308 307 307 305 300 300 299 300 297 295 295 297 297
85 91 89 88 88 82 79 81 80 75 76 63 47 9 291 26 28 2 2 10 343 297 305 303 298 297 293 291 304 302 304 306 302 302 301 297 294 295 293 295 295 295 295
88 87 91 82 81 80 82 81 80 78 79 74 33 323 356 85 337 324 320 320 303 294 284 277 285 285 276 281 299 305 301 296 295 293 293 294 294 295 292 290 291 292 291
85 85 82 83 83 78 81 82 86 89 79 60 348 331 351 45 337 299 299 293 284 271 272 267 287 265 280 290 294 293 293 293 293 294 294 293 294 293 293 292 292 291 291
88 90 86 85 92 110 97 86 77 67 49 8 315 318 331 304 286 279 272 272 271 276 277 280 284 297 290 271 259 267 283 284 285 290 292 294 294 292 290 289 291 291 290
81 88 93 89 75 76 79 66 54 57 341 308 310 296 282 274 273 273 274 276 282 286 283 283 275 278 284 281 280 276 272 275 279 280 284 287 287 289 286 288 286 286 286
83 80 85 88 82 85 80 58 32 345 287 267 275 269 272 278 282 279 278 285 288 289 287 275 274 274 274 277 277 278 276 280 274 274 275 270 272 277 278 280 283 289 290
88 85 83 83 81 84 106 94 278 270 267 267 266 276 274 282 277 284 291 291 287 283 281 280 277 271 276 281 279 278 280 282 282 274 265 265 273 281 284 288 292 292 290